Content
SEND FEEDBACK

Daily
Averages
Monthly
Summary
United States of America

PETALUMA, CALIFORNIA


Home > North America > United States > California
Elevation: 1 foot     Latitude: 38 14N     Longitude: 122 38W

WEATHER
 
SELECT A DAY
Number of Records: 76,635;   Date Range: 4/19/11 - 10/20/14
 
SHARE

PRINT THIS DATA

[ ← Previous Day ]
WEATHER ALMANAC - OCTOBER 18, 2013
[ Next Day → ]
[ °C ]   °F
Weather ElementAverageHighLow
Temperature54.1 °F77 °F (2:15 pm)42.8 °F (11:55 pm)
Dewpoint44.9 °F53.6 °F (10:35 am)39.2 °F (5:35 pm)
Humidity78.2 %100 % (12:35 am)31 % (1:55 pm)
Barometer30.04 in30.09 in (9:55 am)30.01 in (2:55 pm)
Wind Speed3.3 mph11.5 mph (4:15 pm)
Weather ElementAverage
Visibility5.9 mi
Wind DirectionSSW (217.6 °)

Weather ElementTotal
Precipitation---
Heating Degree Days5.1 (Base 65)
Growing Degree Days9.9 (Base 50)
Averaged from 71 records on October 18, 2013
WEATHER CONDITIONS BREAKOUT
WIND DIRECTION BREAKOUT
WEATHER BY HOUR - OCTOBER 18, 2013
[ °C ]   °F
Local TimeTemperatureDewpointHumidityBarometerVisibilityWind DirectionWind SpeedGust SpeedPrecipitationEventsConditions
12:35 AM44.6 °F44.6 °F100 %30.02 in5.0 miCalmScattered Clouds
12:55 AM44.6 °F44.6 °F100 %30.02 in0.8 miNW (320°)3.5 mphOvercast
1:15 AM48.2 °F48.2 °F100 %30.02 in0.2 miNW (320°)3.5 mphOvercast
1:35 AM46.4 °F46.4 °F100 %30.03 in0.2 miCalmOvercast
1:55 AM46.4 °F46.4 °F100 %30.03 in0.2 miCalmOvercast
2:15 AM46.4 °F46.4 °F100 %30.03 in0.2 miNNW (340°)3.5 mphOvercast
2:35 AM46.4 °F46.4 °F100 %30.03 in0.2 miCalmOvercast
2:55 AM46.4 °F46.4 °F100 %30.03 in0.2 miNorth (350°)3.5 mphOvercast
3:15 AM46.4 °F46.4 °F100 %30.03 in0.2 miCalmOvercast
3:35 AM44.6 °F44.6 °F100 %30.03 in0.2 miNorth (350°)3.5 mphOvercast
3:55 AM44.6 °F44.6 °F100 %30.03 in0.2 miNNW (340°)3.5 mphOvercast
4:15 AM44.6 °F44.6 °F100 %30.02 in0.2 miNNW (340°)3.5 mphOvercast
4:35 AM44.6 °F44.6 °F100 %30.03 in0.2 miNNW (340°)3.5 mphOvercast
4:55 AM44.6 °F44.6 °F100 %30.03 in0.2 miNNW (340°)3.5 mphOvercast
5:15 AM44.6 °F44.6 °F100 %30.03 in0.2 miNNW (340°)3.5 mphOvercast
5:35 AM44.6 °F44.6 °F100 %30.04 in0.2 miNorth (350°)3.5 mphOvercast
5:55 AM44.6 °F44.6 °F100 %30.04 in0.2 miNNW (340°)3.5 mphOvercast
6:15 AM44.6 °F44.6 °F100 %30.04 in0.2 miCalmOvercast
6:35 AM44.6 °F44.6 °F100 %30.04 in0.2 miNorth (350°)3.5 mphOvercast
6:55 AM44.6 °F44.6 °F100 %30.05 in0.2 miNorth (10°)3.5 mphOvercast
7:15 AM44.6 °F44.6 °F100 %30.05 in0.2 miNorth (360°)3.5 mphOvercast
7:35 AM44.6 °F44.6 °F100 %30.06 in0.2 miCalmOvercast
7:55 AM44.6 °F44.6 °F100 %30.06 in0.2 miNorth (350°)4.6 mphOvercast
8:15 AM44.6 °F44.6 °F100 %30.07 in0.2 miCalmOvercast
8:35 AM44.6 °F44.6 °F100 %30.07 in0.2 miCalmOvercast
8:55 AM44.6 °F44.6 °F100 %30.08 in0.2 miCalmOvercast
9:15 AM46.4 °F46.4 °F100 %30.08 in0.2 miCalmOvercast
9:35 AM46.4 °F46.4 °F100 %30.08 in0.2 miWest (280°)4.6 mphOvercast
9:55 AM48.2 °F48.2 °F100 %30.09 in5.0 miWNW (290°)3.5 mphScattered Clouds
10:15 AM50.0 °F50.0 °F100 %30.08 in10.0 miCalmClear
10:35 AM53.6 °F53.6 °F100 %30.08 in10.0 miNW (320°)3.5 mphClear
10:55 AM57.2 °F50.0 °F77 %30.08 in10.0 miCalmClear
11:15 AM62.6 °F46.4 °F55 %30.08 in10.0 miSW (220°)3.5 mphClear
11:35 AM64.4 °F44.6 °F49 %30.07 in10.0 miCalmClear
11:55 AM66.2 °F42.8 °F43 %30.07 in10.0 miCalmClear
12:15 PM68.0 °F42.8 °F40 %30.06 in10.0 miCalmClear
12:35 PM71.6 °F41.0 °F33 %30.06 in10.0 miCalmClear
12:55 PM71.6 °F44.6 °F38 %30.05 in10.0 miCalmClear
1:15 PM73.4 °F44.6 °F36 %30.05 in10.0 miWSW (250°)3.5 mphClear
1:35 PM75.2 °F44.6 °F34 %30.04 in10.0 miCalmClear
1:55 PM75.2 °F42.8 °F31 %30.03 in10.0 miCalmClear
2:15 PM77.0 °F44.6 °F32 %30.02 in10.0 miCalmClear
2:35 PM77.0 °F46.4 °F34 %30.02 in10.0 miWNW (290°)6.9 mphClear
2:55 PM77.0 °F46.4 °F34 %30.01 in10.0 miWest (270°)9.2 mphClear
3:15 PM75.2 °F46.4 °F36 %30.01 in10.0 miWNW (300°)6.9 mphClear
3:35 PM73.4 °F46.4 °F38 %30.01 in10.0 miWNW (300°)8.1 mphClear
3:55 PM71.6 °F44.6 °F38 %30.02 in10.0 miWNW (300°)10.4 mphClear
4:15 PM71.6 °F44.6 °F38 %30.02 in10.0 miWNW (300°)11.5 mphClear
4:35 PM69.8 °F41.0 °F35 %30.02 in10.0 miNW (310°)6.9 mphClear
4:55 PM68.0 °F41.0 °F37 %30.02 in10.0 miNW (310°)4.6 mphClear
5:15 PM66.2 °F41.0 °F40 %30.02 in10.0 miNW (320°)6.9 mphClear
5:35 PM66.2 °F39.2 °F37 %30.02 in10.0 miNW (310°)5.8 mphClear
5:55 PM64.4 °F39.2 °F40 %30.02 in10.0 miNW (310°)5.8 mphClear
6:15 PM62.6 °F39.2 °F42 %30.03 in10.0 miWNW (300°)5.8 mphClear
6:35 PM57.2 °F41.0 °F55 %30.03 in10.0 miNW (310°)4.6 mphClear
6:55 PM55.4 °F42.8 °F63 %30.03 in10.0 miWNW (300°)6.9 mphPartly Cloudy
7:15 PM53.6 °F42.8 °F67 %30.04 in10.0 miNW (310°)5.8 mphScattered Clouds
7:35 PM50.0 °F44.6 °F82 %30.04 in10.0 miNW (310°)3.5 mphMostly Cloudy
7:55 PM50.0 °F44.6 °F82 %30.05 in10.0 miNW (320°)3.5 mphScattered Clouds
8:15 PM48.2 °F46.4 °F93 %30.05 in10.0 miNW (320°)3.5 mphMostly Cloudy
8:35 PM46.4 °F46.4 °F100 %30.05 in10.0 miNNW (330°)5.8 mphMostly Cloudy
8:55 PM48.2 °F46.4 °F93 %30.05 in10.0 miNW (320°)3.5 mphMostly Cloudy
9:15 PM46.4 °F46.4 °F100 %30.05 in10.0 miNW (310°)3.5 mphMostly Cloudy
9:35 PM46.4 °F46.4 °F100 %30.06 in10.0 miNW (310°)4.6 mphScattered Clouds
9:55 PM46.4 °F46.4 °F100 %30.06 in10.0 miNW (310°)4.6 mphScattered Clouds
10:15 PM46.4 °F46.4 °F100 %30.06 in9.0 miNW (310°)4.6 mphScattered Clouds
10:35 PM44.6 °F44.6 °F100 %30.07 in9.0 miWNW (300°)3.5 mphPartly Cloudy
10:55 PM44.6 °F44.6 °F100 %30.06 in5.0 miNNW (330°)3.5 mphClear
11:15 PM44.6 °F44.6 °F100 %30.06 in7.0 miNNW (330°)3.5 mphPartly Cloudy
11:35 PM44.6 °F44.6 °F100 %30.06 in7.0 miWNW (300°)3.5 mphScattered Clouds
11:55 PM42.8 °F42.8 °F100 %30.06 in8.0 miNW (310°)4.6 mphClear
Hourly data recorded from KO69, located miles away from Petaluma, California







STORIES FROM OUR PARTNERS